Wind_Speed
13 15 17 18 18 19 21 23 23 19 18 16 14 13 12 13 15 20 27 35 39 41 41 40 40 40 41 40 39 38 36 36 35 36 36 37 37 38 38 38 39 41 44 47
10 12 12 12 14 16 17 17 18 17 15 11 7 6 3 6 11 18 26 33 36 37 37 37 37 37 37 37 36 35 34 34 34 34 35 36 36 36 37 38 41 43 46 49
6 8 8 10 12 13 13 13 14 14 12 8 4 4 7 10 13 19 25 29 32 33 33 33 32 32 33 33 32 32 32 32 32 33 33 34 34 35 37 40 42 45 48 50
4 5 6 8 10 11 10 10 10 9 8 8 8 9 12 16 18 21 24 26 28 29 29 29 29 29 29 29 29 29 29 29 30 30 31 32 34 36 38 41 44 46 49 52
2 3 4 7 8 8 7 7 7 7 6 7 8 10 14 16 18 19 20 22 23 23 24 24 24 24 24 24 25 25 25 26 27 28 30 32 34 37 39 42 45 47 50 53
2 1 3 5 7 7 5 5 5 4 5 6 7 10 13 15 17 17 17 18 18 18 19 19 20 20 21 21 21 22 23 24 25 27 29 32 35 37 40 43 46 49 51 54
3 1 2 4 6 6 5 5 5 3 5 7 8 9 10 12 13 14 14 15 16 16 16 16 16 16 17 18 19 20 21 23 25 27 30 33 36 38 41 44 47 50 52 55
5 3 1 3 5 5 4 4 4 5 5 6 7 8 8 9 10 11 12 12 13 13 13 13 14 14 15 16 17 19 20 23 25 28 31 34 37 40 42 45 48 50 53 55
7 5 3 2 3 3 2 2 2 2 4 4 6 7 7 8 9 9 9 10 10 10 10 11 11 12 13 15 16 18 21 23 26 29 32 35 38 41 44 46 49 50 52 54
9 7 5 4 3 2 2 1 1 1 2 4 4 5 7 8 8 7 7 7 8 8 9 9 10 11 12 14 16 19 22 25 28 31 34 37 40 42 45 47 49 51 52 55
10 8 7 6 5 4 3 2 2 3 3 4 4 5 5 6 6 5 5 6 6 7 7 8 9 11 13 16 18 21 24 27 30 33 35 38 41 43 45 47 49 51 54 57
10 9 9 8 7 7 6 5 4 4 4 4 5 5 5 5 5 5 5 5 6 7 7 9 10 13 15 18 20 23 26 29 31 34 37 39 41 44 46 48 50 53 57 62
12 11 10 9 9 8 7 7 6 5 5 5 5 5 5 5 5 5 5 5 6 7 9 10 13 16 18 21 23 26 28 31 33 35 38 40 42 44 46 50 54 58 62 67
12 12 11 11 10 10 9 8 7 7 6 7 6 6 6 6 6 6 6 6 7 9 11 14 17 19 21 23 25 28 30 32 34 36 38 40 42 45 48 52 56 62 67 72
13 12 12 12 11 11 10 10 9 9 8 8 8 7 7 7 7 7 7 8 10 12 15 17 19 21 23 25 27 29 31 33 35 37 39 41 44 47 51 56 60 65 70 74
12 12 12 12 12 11 11 11 11 11 10 10 10 9 9 9 8 8 10 11 14 16 18 21 22 24 25 27 28 29 31 33 35 38 40 43 46 50 55 60 65 69 72 73
12 12 12 12 12 11 11 12 12 12 12 12 11 11 11 11 12 13 14 16 18 20 22 23 24 25 26 27 28 30 32 34 36 39 42 46 50 55 59 64 67 70 72 72
11 11 12 12 11 12 12 12 12 12 13 13 13 13 13 14 15 16 18 20 21 22 23 24 25 25 26 27 29 31 33 35 38 41 45 49 54 59 63 66 69 70 71 69
12 12 12 12 13 13 13 13 14 14 15 15 14 15 16 17 18 19 20 22 22 23 23 24 24 25 27 28 30 32 34 37 41 45 49 53 58 62 65 68 70 70 67 60
12 12 13 13 14 14 14 15 15 15 16 16 16 17 18 19 20 20 21 21 22 22 23 23 24 26 27 29 31 33 36 40 44 48 53 57 61 64 67 69 70 66 59 49
13 13 14 14 14 15 15 16 16 16 17 17 18 19 19 20 20 20 20 21 21 22 22 23 25 26 28 30 32 36 40 44 48 52 56 60 63 67 69 69 65 57 48 37
15 15 15 15 15 16 16 16 17 17 18 18 18 18 19 19 19 20 20 20 21 22 23 24 26 27 29 32 35 39 43 47 51 56 59 63 66 68 68 65 57 46 36 25
17 17 17 17 17 18 18 18 18 18 18 18 18 18 18 19 19 20 20 21 21 22 24 25 26 29 31 35 38 42 46 51 55 59 62 65 67 67 63 56 46 34 24 14
18 18 18 18 19 18 18 18 18 18 18 18 18 19 19 19 20 20 21 21 22 23 25 26 28 31 34 38 42 46 50 54 58 61 65 67 66 62 56 45 33 22 12 5
20 19 19 19 19 19 19 19 19 19 18 19 19 19 20 20 20 21 22 22 23 24 25 28 30 34 37 41 45 49 53 57 60 63 66 66 62 55 45 33 21 11 4 0
23 22 22 21 21 21 21 20 20 20 20 20 20 21 21 21 22 22 23 23 24 25 27 30 33 36 40 44 48 52 56 59 62 64 65 61 54 44 32 20 10 3 1 2
26 25 25 24 24 23 23 23 22 22 22 22 22 22 23 23 23 23 23 24 25 27 29 32 36 39 43 47 51 55 58 61 63 64 61 54 43 31 20 10 3 1 2 2
Wind_Direction
274 285 295 306 309 311 312 313 316 323 316 307 296 288 273 246 221 205 196 191 188 189 192 197 201 206 210 215 220 226 233 239 246 252 256 261 266 270 274 277 281 285 288 291
279 293 306 317 319 317 318 320 323 324 324 317 309 307 275 209 185 178 179 178 179 182 187 192 198 204 209 215 221 228 235 242 248 253 258 263 267 271 275 280 284 287 290 293
279 300 317 330 332 329 329 328 330 333 337 338 348 59 102 125 145 157 163 167 171 177 182 188 195 202 209 216 223 230 238 244 249 254 259 264 269 273 279 283 287 290 293 295
276 305 335 350 350 345 344 343 347 357 6 24 57 91 106 117 130 140 148 157 164 172 180 187 195 203 211 218 225 233 239 244 249 255 261 267 272 278 283 287 290 293 295 297
274 319 358 4 2 5 7 1 4 15 36 53 73 92 107 116 125 133 142 151 161 170 179 188 196 204 212 219 226 233 239 246 252 259 266 272 278 282 286 290 293 295 297 299
258 347 22 10 9 12 18 16 22 36 71 88 97 101 111 121 127 133 141 150 158 167 177 186 195 204 212 220 228 236 244 252 259 266 273 278 283 287 290 293 295 297 299 301
234 262 18 8 10 20 38 44 47 79 112 118 118 117 119 125 133 140 149 156 163 171 180 190 199 208 218 227 236 245 253 261 268 274 279 284 287 290 293 295 297 300 302 303
226 232 289 354 2 11 31 47 61 84 109 127 134 137 138 142 145 152 161 166 172 181 190 199 209 219 229 239 248 257 265 271 276 281 285 288 291 293 295 298 300 302 304 306
227 232 244 287 331 353 11 49 67 107 128 129 135 144 151 156 158 165 174 181 186 194 204 214 223 235 247 255 263 269 274 279 283 286 289 291 294 297 299 301 302 304 306 308
228 234 240 252 268 286 306 299 244 196 173 174 165 162 163 167 172 180 187 194 204 214 223 234 245 254 263 269 274 278 283 286 288 291 293 296 298 300 302 303 305 307 309 310
228 230 231 236 241 249 251 250 250 229 214 194 191 191 190 193 204 205 202 208 219 231 242 252 261 268 275 280 284 287 290 292 294 296 298 300 302 303 305 306 308 309 310 311
229 230 232 233 235 239 239 242 239 235 222 210 210 212 209 209 212 216 222 229 238 247 257 269 277 283 287 290 292 294 296 297 299 300 302 303 305 306 308 309 311 311 312 313
230 233 234 233 233 236 235 236 236 233 228 225 223 222 219 223 232 239 242 245 257 267 277 285 290 293 295 297 298 299 300 301 302 303 305 307 308 310 311 312 313 314 314 315
232 235 236 233 232 234 236 232 233 232 229 221 219 221 227 232 236 243 249 257 271 283 291 296 299 300 301 302 302 303 303 304 305 307 308 310 311 312 313 314 314 315 316 316
233 235 234 232 233 237 236 232 235 236 232 225 223 226 231 237 241 249 260 272 284 294 299 303 304 305 305 305 305 305 306 307 308 310 311 312 313 314 315 315 315 316 317 318
231 232 234 234 235 237 233 232 235 237 238 235 232 234 239 244 250 261 275 287 294 299 302 304 305 306 306 307 307 308 309 310 311 312 313 314 315 316 316 317 317 318 319 320
230 232 234 233 232 232 231 233 239 240 239 242 241 244 248 254 263 274 284 291 297 301 303 305 306 307 308 308 309 310 311 312 313 314 315 316 317 317 318 319 320 321 321 322
232 233 231 229 229 229 233 235 235 240 244 246 249 253 258 266 274 282 288 293 298 301 303 305 307 308 309 310 311 312 313 314 315 316 317 318 318 319 320 321 322 323 323 324
233 233 232 230 229 230 232 237 242 244 246 248 253 260 267 274 280 286 291 296 300 302 304 306 307 309 310 311 312 313 315 316 317 318 319 319 320 321 322 323 324 324 324 325
232 232 233 232 232 233 234 239 242 245 248 252 259 267 274 280 285 290 294 298 301 303 305 307 308 310 311 312 314 315 316 318 319 320 320 321 323 324 324 324 325 325 325 325
233 233 234 235 236 238 239 243 248 252 256 261 268 274 278 283 288 292 296 300 302 304 306 308 309 311 312 314 315 317 318 319 320 321 323 324 325 325 325 325 325 325 326 326
236 236 237 239 241 243 245 249 254 258 263 268 272 277 281 286 290 294 298 300 302 305 307 308 310 312 313 315 317 318 320 321 322 324 325 326 326 326 326 326 326 326 326 327
238 239 240 241 243 246 250 254 257 262 266 270 274 279 283 287 291 295 298 300 302 304 306 308 310 313 315 317 318 320 322 324 325 326 327 327 328 328 327 327 327 326 326 327
238 240 241 243 245 248 252 256 259 263 267 271 275 280 284 288 291 294 297 299 301 304 306 309 312 314 316 318 320 322 324 326 327 328 328 329 329 328 328 328 327 327 328 329
241 242 243 245 246 248 251 255 260 264 268 272 275 279 283 286 290 293 296 299 301 304 307 310 313 315 317 319 322 324 326 327 328 329 329 330 329 329 329 329 328 329 334 58
243 243 244 245 247 250 252 255 259 263 267 270 274 278 282 285 289 292 295 298 301 304 307 311 313 316 319 321 323 325 327 328 329 330 330 330 330 330 330 331 331 336 108 122
244 245 245 247 249 251 253 256 259 262 266 270 273 277 281 284 288 291 294 297 301 304 308 312 315 317 320 323 325 327 328 329 330 330 331 330 330 331 331 331 333 134 142 133
Height
5607 5604 5601 5598 5594 5589 5582 5576 5569 5563 5555 5549 5542 5537 5533 5530 5529 5532 5538 5548 5559 5571 5584 5596 5606 5615 5623 5631 5637 5643 5648 5651 5654 5656 5657 5657 5656 5655 5653 5651 5648 5645 5641 5636
5603 5600 5597 5594 5590 5585 5579 5574 5568 5561 5555 5549 5543 5537 5533 5531 5532 5535 5542 5551 5561 5573 5585 5595 5604 5613 5621 5627 5634 5639 5643 5646 5648 5649 5649 5649 5648 5647 5645 5642 5639 5635 5631 5626
5599 5597 5594 5591 5587 5582 5577 5573 5568 5562 5557 5551 5546 5542 5539 5538 5540 5543 5550 5557 5567 5577 5586 5595 5604 5611 5618 5625 5630 5634 5637 5640 5641 5642 5642 5642 5641 5639 5637 5633 5630 5625 5621 5615
5596 5595 5592 5591 5585 5581 5576 5573 5568 5564 5560 5556 5552 5549 5547 5548 5550 5554 5559 5566 5573 5581 5589 5597 5604 5611 5617 5622 5626 5630 5632 5634 5635 5636 5635 5634 5633 5631 5628 5624 5620 5615 5610 5604
5593 5592 5590 5589 5584 5580 5577 5575 5571 5568 5564 5562 5559 5557 5557 5558 5560 5564 5568 5573 5579 5586 5592 5599 5605 5610 5615 5619 5623 5625 5627 5628 5629 5629 5628 5627 5625 5622 5619 5615 5610 5605 5598 5592
5591 5590 5589 5589 5585 5581 5580 5577 5574 5571 5569 5568 5567 5567 5567 5567 5569 5572 5576 5580 5585 5590 5595 5600 5605 5609 5613 5616 5619 5621 5622 5623 5623 5622 5621 5619 5617 5613 5610 5605 5599 5593 5587 5580
5589 5588 5588 5588 5585 5583 5582 5580 5577 5575 5574 5573 5573 5573 5574 5574 5576 5579 5582 5585 5589 5593 5597 5601 5604 5608 5611 5613 5615 5616 5617 5617 5617 5615 5614 5611 5608 5604 5600 5595 5589 5583 5576 5568
5587 5587 5590 5587 5585 5584 5583 5580 5579 5578 5577 5577 5577 5578 5578 5580 5581 5583 5586 5588 5591 5594 5597 5600 5603 5606 5608 5610 5611 5611 5612 5611 5610 5608 5606 5603 5599 5595 5590 5584 5578 5571 5564 5555
5586 5589 5587 5586 5585 5584 5583 5582 5581 5581 5580 5580 5580 5581 5582 5583 5585 5586 5588 5591 5593 5595 5597 5600 5602 5604 5605 5606 5606 5607 5606 5605 5603 5601 5598 5594 5590 5585 5580 5574 5567 5560 5552 5544
5583 5585 5585 5585 5585 5584 5584 5583 5583 5582 5582 5582 5583 5583 5584 5586 5587 5588 5590 5591 5593 5595 5597 5598 5600 5601 5602 5602 5602 5601 5600 5599 5596 5593 5590 5585 5580 5575 5569 5563 5556 5548 5541 5532
5581 5582 5583 5583 5584 5584 5584 5583 5583 5583 5583 5584 5584 5585 5586 5587 5588 5589 5590 5591 5593 5594 5595 5596 5597 5598 5598 5598 5597 5596 5594 5592 5589 5585 5581 5576 5570 5565 5558 5552 5544 5537 5529 5520
5578 5580 5581 5581 5582 5582 5583 5583 5583 5583 5583 5584 5584 5585 5586 5587 5588 5589 5590 5590 5591 5592 5593 5594 5594 5594 5594 5593 5592 5590 5587 5584 5580 5576 5572 5566 5560 5554 5547 5540 5533 5525 5516 5506
5575 5576 5577 5578 5579 5580 5581 5581 5582 5582 5582 5583 5584 5584 5585 5586 5587 5588 5588 5589 5590 5591 5591 5591 5591 5590 5589 5588 5586 5583 5580 5576 5572 5567 5562 5557 5551 5544 5537 5529 5520 5511 5502 5491
5571 5573 5574 5575 5577 5577 5578 5579 5580 5580 5581 5582 5582 5583 5584 5585 5586 5586 5587 5587 5588 5588 5588 5587 5587 5585 5583 5581 5579 5575 5572 5568 5563 5558 5553 5547 5541 5534 5527 5519 5510 5499 5487 5475
5568 5570 5571 5572 5573 5575 5575 5577 5578 5579 5579 5580 5581 5582 5583 5583 5584 5584 5585 5585 5585 5585 5584 5583 5581 5580 5577 5574 5571 5568 5564 5559 5555 5549 5544 5538 5531 5524 5516 5507 5497 5486 5474 5460
5565 5566 5567 5569 5570 5571 5573 5574 5575 5576 5577 5578 5579 5580 5581 5581 5582 5582 5582 5582 5581 5580 5579 5578 5575 5573 5570 5567 5563 5560 5555 5551 5546 5541 5535 5528 5521 5513 5504 5494 5483 5471 5458 5446
5561 5562 5564 5565 5567 5568 5569 5571 5572 5573 5574 5575 5576 5577 5578 5578 5578 5578 5578 5577 5576 5575 5573 5571 5569 5566 5563 5559 5556 5552 5547 5543 5537 5532 5525 5518 5510 5502 5492 5481 5468 5455 5442 5429
5558 5559 5561 5562 5563 5565 5566 5567 5569 5570 5571 5572 5573 5573 5574 5574 5574 5574 5573 5572 5571 5569 5567 5564 5562 5559 5556 5552 5548 5544 5540 5535 5529 5523 5516 5508 5499 5489 5478 5466 5454 5440 5427 5413
5555 5556 5557 5559 5560 5562 5563 5564 5565 5566 5567 5568 5569 5569 5569 5570 5569 5569 5567 5566 5564 5563 5560 5558 5555 5552 5549 5545 5541 5537 5532 5526 5520 5513 5506 5497 5487 5476 5464 5452 5439 5425 5413 5400
5551 5553 5554 5555 5557 5558 5559 5560 5561 5562 5563 5564 5564 5564 5564 5564 5563 5562 5561 5560 5558 5556 5554 5551 5548 5545 5542 5538 5534 5529 5524 5518 5511 5503 5495 5485 5474 5462 5450 5437 5424 5411 5399 5389
5548 5549 5550 5552 5553 5554 5555 5556 5557 5558 5558 5559 5559 5559 5559 5558 5557 5556 5555 5553 5552 5549 5547 5545 5542 5538 5535 5531 5526 5521 5516 5509 5501 5493 5483 5472 5461 5448 5435 5422 5410 5398 5389 5381
5543 5545 5546 5547 5549 5550 5551 5552 5552 5553 5553 5553 5554 5553 5553 5552 5551 5550 5549 5547 5545 5543 5541 5538 5535 5532 5528 5524 5519 5513 5507 5499 5491 5481 5471 5460 5448 5434 5421 5409 5397 5388 5380 5375
5539 5540 5541 5543 5544 5545 5546 5547 5547 5548 5548 5548 5548 5548 5547 5546 5545 5544 5543 5541 5539 5537 5535 5532 5528 5525 5521 5516 5511 5504 5497 5489 5480 5470 5459 5447 5434 5421 5409 5397 5388 5380 5375 5371
5533 5535 5536 5537 5538 5540 5540 5541 5541 5542 5542 5542 5542 5542 5541 5541 5539 5538 5537 5535 5533 5531 5528 5525 5522 5518 5513 5508 5502 5495 5487 5478 5468 5458 5446 5434 5422 5409 5398 5388 5380 5375 5372 5370
5528 5529 5530 5532 5533 5534 5535 5535 5536 5536 5536 5536 5536 5536 5535 5534 5533 5532 5530 5528 5526 5524 5521 5518 5515 5510 5505 5500 5493 5485 5477 5467 5457 5446 5434 5422 5410 5399 5389 5381 5376 5372 5371 5370
5521 5523 5524 5525 5526 5527 5528 5529 5529 5530 5530 5530 5530 5529 5529 5528 5527 5525 5524 5522 5520 5517 5515 5511 5507 5502 5497 5491 5483 5475 5466 5456 5446 5435 5423 5411 5400 5391 5383 5378 5374 5372 5372 5371
5513 5515 5516 5518 5519 5520 5521 5522 5523 5523 5523 5524 5523 5523 5522 5521 5520 5519 5517 5515 5513 5510 5507 5503 5499 5494 5488 5481 5474 5465 5456 5445 5435 5423 5412 5401 5392 5385 5380 5376 5374 5373 5373 5373